Simultaneous Nadir Overpasses (SNOs) Predictions

Prediction of SNOs between GOES-15 and TERRA Satellite Orbit:

Table of predicted SNOs for the next 14.0 days since TLE Epoch: 3/16/2024
Index Date Time (GOES-15) GOES-15 Lat,Lon TERRA Lat,Lon Distance(km) Time Diff (sec)
1 03/16/2024 05:30:56 -0.03, 61.22 -0.93, 65.58 495.66 80
2 03/16/2024 17:51:06 0.03, 61.18 -0.05, 60.67 56.87 80
3 03/18/2024 17:31:25 0.04, 61.18 0.78, 64.78 409.00 80
4 03/19/2024 05:51:27 -0.04, 61.23 0.23, 59.91 149.44 80
5 03/21/2024 05:37:06 -0.04, 61.23 -0.62, 64.02 316.77 80
6 03/21/2024 17:57:15 0.05, 61.18 -0.40, 59.12 234.92 80
7 03/23/2024 17:37:34 0.04, 61.18 0.47, 63.22 231.26 80
8 03/24/2024 05:57:35 -0.05, 61.24 0.58, 58.36 327.89 80
9 03/26/2024 05:43:14 -0.05, 61.24 -0.31, 62.46 138.34 80
10 03/26/2024 18:03:22 0.06, 61.19 -0.70, 57.55 412.73 80
11 03/28/2024 17:43:41 0.05, 61.20 0.16, 61.66 52.62 80
